User: anonymous   Login
Location: Lawrence Hall of Science
(37.8785°N, 122.2415°W)
Time: 07:01:58
(UTC-08:00)
Language:

Cosmos 2098 Rocket - Orbit

View from above orbital plane
View from above orbital plane
View from above satellite
View from above satellite

Ground track
Ground track

The orbit data is extracted from the following two-line orbital elements,

1 20775U 90078B   14327.49658617  .00008086  00000-0  43879-3 0  5664
2 20775 082.9339 091.3619 0630554 331.1115 091.7620 14.20161788215207
Epoch (UTC): 23 November 2014 11:55:05
Eccentricity: 0.0630554
inclination: 82.9339°
perigee height: 370 km
apogee height: 1279 km
right ascension of ascending node: 91.3619°
argument of perigee: 331.1115°
revolutions per day: 14.20161788
mean anomaly at epoch: 91.7620°
orbit number at epoch: 21520

The dashed part of the orbit path shows where the satellite is in the earth's shadow,  

DLR